Regional Weather Roundup
Issued by NWS

Home | Current Version | Previous Version | Text Only | Print | Product List | Glossary Off
Versions: 1 2 3 4 5 6 7 8 9 10 11 12 13 14 15 16 17 18 19 20 21 22 23 24 25 26 27 28 29 30 31 32 33 34 35 36 37 38 39 40 41 42 43 44 45 46 47 48 49 50

000
ASUS43 KMPX 300210
RWRMN
WEATHER ROUNDUP FOR MINNESOTA
NATIONAL WEATHER SERVICE TWIN CITIES/CHANHASSEN MN
900 PM CDT FRI JUL 29 2016


NOTE: "FAIR" INDICATES FEW OR NO CLOUDS BELOW 12,000 FEET WITH NO
SIGNIFICANT WEATHER AND/OR OBSTRUCTIONS TO VISIBILITY. N/A MEANS
CURRENT SKY AND/OR WEATHER CONDITIONS ARE NOT AVAILABLE.

MNZ060>063-068>070-300300-
   Twin Cities Metro

CITY           SKY/WX    TMP DP  RH WIND       PRES   REMARKS
TWIN CITIES    PTCLDY    74  52  46 CALM      30.03R
ST PAUL        CLEAR     73  55  53 CALM      30.03R
CRYSTAL        CLEAR     71  51  49 CALM      30.02R
BLAINE         PTCLDY    72  55  56 CALM      30.03S
LAKEVILLE      CLEAR     63  57  82 CALM      30.03S
EDEN PRAIRIE   CLEAR     72  51  47 N3        30.02R
LAKEVILLE      CLEAR     63  57  82 CALM      30.03S
SOUTH ST PAUL  CLEAR     73  53  48 CALM      30.03R
LAKE ELMO      FAIR      66  61  82 CALM      30.04R
$$
MNZ001>005-007-008-013>017-022>024-027-028-300300-
   Northwest Minnesota

CITY           SKY/WX    TMP DP  RH WIND       PRES   REMARKS
BEMIDJI        PTCLDY    70  59  69 SE6       30.02S
HALLOCK        CLEAR     72  61  68 CALM      29.98S
ROSEAU         CLEAR     72  64  78 CALM      30.00R
WARROAD        CLEAR     73  63  68 E2        30.00S
THIEF RVR FALL PTCLDY    69  59  70 W6        30.01S
CROOKSTON      CLEAR     73  54  49 CALM      30.00S
FOSSTON        PTCLDY    66  55  68 CALM      30.02R
DETROIT LAKES  PTCLDY    72  63  73 SW6       30.03S
MOORHEAD       CLEAR     72  64  78 CALM      30.01R
PARK RAPIDS    PTCLDY    70  61  73 S6        30.03S
MAHNOMEN       FAIR      71  57  62 CALM      30.01R
$$
MNZ006-009>011-018-025>026-300300-
   North Central Minnesota

CITY           SKY/WX    TMP DP  RH WIND       PRES   REMARKS
BAUDETTE       CLEAR     70  55  59 S6        30.00S
FLAG ISLAND    PTCLDY    73  57  56 CALM      29.99S
INTL FALLS     MOCLDY    68  58  70 SE3       30.02R
WASKISH        PTCLDY    66  61  82 CALM      30.01S HAZE
BIG FORK       CLEAR     63  59  88 CALM      30.04R
LONGVILLE      CLOUDY    64  63  94 CALM      30.03S
GRAND RAPIDS   CLEAR     63  58  83 SE6       30.06S
CRANE LAKE     CLEAR     59  57  94 CALM      30.05S
ORR            CLEAR     63  55  77 CALM      30.02S
COOK           CLEAR     63  57  82 CALM      30.05S
WALKER         FAIR      69  59  69 S5        30.03S
$$
MNZ012-019>021-037-300300-
   Northeast Minnesota

CITY           SKY/WX    TMP DP  RH WIND       PRES   REMARKS
DULUTH         CLEAR     58  51  78 E5        30.07S
ELY            CLEAR     64  52  63 SE3       30.07R
HIBBING        CLEAR     64  53  67 SE6       30.05R
EVELETH        CLEAR     63  52  67 SE3       30.07R
DULUTH HARBOR  CLEAR     64  61  88 NE7       30.06S
TWO HARBORS    CLEAR     63  55  77 CALM      30.06R
SILVER BAY     CLEAR     61  54  77 CALM      30.07R
GRAND MARAIS     N/A     61  55  81 NW5       30.07R
G MARAIS ARPRT CLEAR     57  48  72 CALM      30.11S
$$
MNZ029>031-032-039>041-046>048-054>057-064-300300-
   West Central Minnesota

CITY           SKY/WX    TMP DP  RH WIND       PRES   REMARKS
FERGUS FALLS   CLEAR     70  63  78 CALM      30.03R
WHEATON        PTCLDY    70  64  83 E6        30.03R
MORRIS         CLEAR     70  63  78 S3        30.03R
ALEXANDRIA     CLOUDY    71  58  63 S5        30.05S
ELBOW LAKE     FAIR      68  64  85 E3        30.03R
WADENA         CLOUDY    66  63  88 S3        30.03S
GLENWOOD       CLEAR    N/A N/A N/A CALM      30.06R
APPLETON       CLEAR     72  57  60 CALM      30.03R
BENSON         CLEAR     72  55  56 CALM      30.04R
ORTONVILLE     CLEAR     70  61  73 CALM      30.03R
MADISON        CLEAR     70  61  73 SE6       30.03R
WILLMAR        FAIR      70  59  68 SE3       30.05R
$$
MNZ033>034-036-042>043-049>051-058-059-300300-
   Central Minnesota

CITY           SKY/WX    TMP DP  RH WIND       PRES   REMARKS
ST CLOUD       CLEAR     65  59  81 CALM      30.04R
SAUK CENTRE    CLOUDY    71  59  66 CALM      30.05R
PAYNESVILLE    PTCLDY    71  56  57 E5        30.05R
AITKIN         CLEAR     66  52  59 CALM      30.04R
PINE RIVER     CLOUDY    68  63  83 CALM      30.06F
BRAINERD       MOCLDY    67  61  81 S3        30.04S
STAPLES        PTCLDY    70  57  64 CALM      30.04R
LONG PRAIRIE   CLOUDY    68  59  73 E3        30.05R
LITTLE FALLS   CLOUDY    66  54  63 E3        30.05R
LITCHFIELD     MOCLDY    70  63  78 SE5       30.05R
BUFFALO        PTCLDY    69  53  57 CALM      30.05R
MAPLE LAKE     CLOUDY    66  59  78 CALM      30.05R
HUTCHINSON     CLEAR     68  61  79 CALM      30.05S
$$
MNZ037-044-045-052-053-300300-
   East Central Minnesota

CITY           SKY/WX    TMP DP  RH WIND       PRES   REMARKS
PRINCETON      CLEAR     64  57  77 CALM      30.05R
MORA           CLEAR     61  55  82 CALM      30.06R
CAMBRIDGE      CLEAR     70  55  60 CALM      30.02S
RUSH CITY      CLEAR     62  58  87 CALM      30.04R
MOOSE LAKE     CLEAR     63  54  72 CALM      30.04S
HINCKLEY       FAIR      64  61  88 CALM      30.05R
CLOQUET        CLEAR     63  52  67 E5        30.06S
MCGREGOR       CLEAR     63  52  67 CALM      30.06R
$$
MNZ071>073-080-081-089-090-097-098-300300-
   Southwest Minnesota

CITY           SKY/WX    TMP DP  RH WIND       PRES   REMARKS
MONTEVIDEO     CLEAR     70  57  64 CALM      30.05S
GRANITE FALLS  CLEAR     73  60  64 CALM      30.05S
CANBY          CLEAR     69  60  71 E5        30.05R
MARSHALL       CLEAR     71  57  61 E5        30.04R
REDWOOD FALLS  CLEAR     71  56  58 E3        30.03S
OLIVIA         CLEAR     72  55  56 CALM      30.04R
PIPESTONE      CLEAR     72  55  56 NE3       30.06R
WINDOM         CLEAR     66  57  72 CALM      30.05R
WORTHINGTON    CLEAR     67  58  72 NE5       30.06R
JACKSON        CLEAR     64  55  72 NE3       30.05S
TRACY          CLEAR     69  61  74 CALM      30.05R
SLAYTON        CLEAR     66  57  72 NE3       30.06S HAZE
$$
MNZ065>067-074>077-082>085-091>093-300300-
   South Central Minnesota

CITY           SKY/WX    TMP DP  RH WIND       PRES   REMARKS
MANKATO        CLEAR     70  54  56 N6        30.03S
NEW ULM        PTCLDY    70  54  56 CALM      30.03S
ST JAMES       PTCLDY    63  55  77 CALM      30.04S
FAIRMONT       CLOUDY    66  57  72 N5        30.02S
GLENCOE        CLOUDY    67  61  82 N3        30.03S
FARIBAULT      CLEAR     63  61  94 CALM      30.04S
OWATONNA       PTCLDY    66  61  82 CALM      30.03S
WASECA         CLEAR     64  54  68 NE3       30.04S
ALBERT LEA     CLEAR     66  63  88 CALM      30.03S
$$
MNZ078>079-086>088-094>096-300300-
   Southeast Minnesota

CITY           SKY/WX    TMP DP  RH WIND       PRES   REMARKS
ROCHESTER      CLOUDY    70  61  73 N5        30.03S
RED WING       CLOUDY    68  59  73 CALM      30.01R
STANTON        CLEAR     66  59  77 CALM      30.02R
DODGE CENTER   PTCLDY    66  57  72 NE6       30.04R
WINONA         PTCLDY    73  64  73 E3        30.01S
AUSTIN         CLEAR     66  61  82 CALM      30.02S
PRESTON        CLOUDY    69  62  80 CALM      30.04R
$$
ABBREVIATIONS USED IN REMARKS
   TC - TEMPERATURES IN CELSIUS
  WCI - WIND CHILL INDEX
   HX - HEAT INDEX
  VSB - VISIBILITY
$$



USA.gov is the U.S. government's official web portal to all federal, state and local government web resources and services.